Wind_Speed
34 34 34 34 34 35 36 36 37 35 34 29 29 32 33 33 33 32 32 32 33 33 34 35 35 36 37 38 39 40 42 43 45 47 48 50 51 52 53 54 55 55 56 58
35 34 35 36 35 35 35 35 36 36 33 29 31 33 34 34 33 33 33 33 34 35 35 36 36 37 38 39 41 42 43 45 47 48 50 51 52 53 54 54 55 57 58 59
35 34 37 38 32 33 34 33 34 35 32 30 31 32 34 34 34 33 33 34 34 35 36 36 37 38 39 41 42 43 45 47 48 50 51 52 53 54 55 56 57 58 59 60
36 36 38 32 30 31 32 32 34 34 32 31 32 33 33 33 33 33 33 34 35 35 36 37 38 39 40 42 43 45 47 48 50 51 52 53 54 55 56 57 58 59 61 62
36 37 36 32 29 29 32 32 31 32 31 31 33 34 33 33 33 32 33 33 35 36 37 37 38 40 42 43 45 46 48 49 51 52 53 54 55 56 57 58 60 61 62 64
36 36 35 29 28 29 31 30 27 30 30 31 32 33 31 31 32 32 33 34 35 36 38 39 40 42 43 45 46 47 49 50 51 52 54 55 56 58 59 60 62 63 65 67
35 35 32 28 28 29 30 28 28 30 30 30 30 30 30 30 32 32 33 35 36 38 39 41 42 43 45 46 47 48 49 51 52 53 55 56 58 59 61 62 64 65 67 69
34 35 30 28 29 29 29 30 30 30 30 29 29 29 30 31 32 33 35 36 38 39 41 42 44 45 46 47 48 49 50 51 53 54 56 58 60 61 63 65 66 68 70 71
34 32 30 31 31 30 30 31 30 30 30 30 30 31 32 33 35 36 37 38 39 41 42 43 44 45 46 47 48 49 51 52 54 56 58 60 62 63 65 67 69 71 73 74
34 31 31 31 31 31 31 31 30 30 31 31 32 32 33 35 36 37 38 39 40 41 42 43 44 45 47 48 49 51 52 54 56 58 60 62 64 66 68 70 72 74 75 76
33 31 32 32 32 32 32 32 32 32 32 33 33 34 35 36 37 38 39 39 40 41 42 44 45 46 47 49 51 53 54 56 58 60 62 64 65 68 70 72 75 76 77 78
32 32 33 33 33 33 33 33 33 33 34 34 35 36 36 36 37 38 39 40 41 42 43 44 45 47 49 51 52 54 55 57 60 62 64 66 68 70 72 74 75 77 78 80
34 33 34 33 33 34 34 34 34 34 35 35 36 36 36 37 38 39 39 40 41 42 44 45 47 49 50 52 54 56 58 60 62 64 67 69 71 73 74 74 75 77 78 80
34 34 34 33 34 34 34 35 35 35 35 35 35 35 36 37 38 39 40 41 42 43 45 46 48 50 52 54 56 58 60 62 65 67 70 72 73 75 75 76 76 76 77 78
34 34 34 34 34 34 34 34 35 35 35 35 36 36 37 37 39 40 41 42 43 45 46 48 50 52 54 56 58 60 63 65 68 70 71 73 75 76 77 78 79 78 76 75
34 34 34 34 34 34 33 33 33 34 35 35 36 37 38 39 40 41 42 43 45 46 48 50 52 54 56 58 61 63 65 68 70 71 73 75 76 78 79 79 78 77 75 74
33 34 34 34 34 33 33 33 33 34 35 36 37 38 39 40 41 42 43 45 46 48 50 52 54 56 59 61 63 65 67 69 72 74 76 77 78 79 78 77 77 75 73 71
33 33 33 33 33 33 33 34 34 35 35 36 37 38 39 40 41 43 44 46 48 50 52 54 56 59 61 63 66 68 70 72 75 76 78 78 78 77 76 75 74 71 69 66
32 33 33 33 33 34 34 34 35 36 36 37 38 39 40 41 43 44 46 48 50 52 54 56 59 61 63 66 69 71 73 76 77 77 77 77 76 75 74 72 70 67 65 62
32 32 33 33 33 34 34 35 35 36 37 38 39 40 41 43 44 46 48 50 52 54 56 58 61 63 66 69 71 73 76 77 77 77 76 75 73 72 70 67 65 63 60 57
32 32 32 33 34 34 35 35 36 37 37 39 40 41 42 44 46 48 50 51 53 56 58 61 64 67 69 71 74 76 76 76 76 75 73 71 69 67 65 63 61 58 56 53
32 32 32 33 34 34 35 36 37 38 39 40 41 42 44 46 48 50 51 53 56 58 61 64 67 69 71 73 75 76 76 75 73 71 69 67 66 64 62 60 57 54 52 50
32 32 32 33 33 34 36 37 37 39 40 41 43 44 46 48 50 51 53 56 58 61 63 66 69 71 72 74 75 74 73 71 69 67 66 65 64 61 58 56 53 52 50 48
32 33 33 34 35 35 36 37 38 40 41 43 45 47 48 49 51 53 56 58 61 63 66 69 71 72 73 73 73 71 69 67 65 64 64 62 59 57 54 51 49 48 46 44
33 34 34 35 36 36 37 38 40 41 43 45 47 48 50 52 54 56 58 61 63 65 68 70 71 71 72 71 70 68 66 64 63 61 59 57 54 52 49 47 46 44 42 41
33 34 34 35 36 37 39 40 42 44 45 47 48 50 52 54 56 58 60 63 65 67 69 69 70 71 71 69 67 64 62 60 58 56 54 51 49 47 46 44 42 41 40 38
34 35 36 37 39 40 41 43 44 46 47 49 50 52 54 56 58 60 62 64 66 67 68 69 70 69 67 65 62 59 58 55 53 51 49 47 46 44 42 41 40 39 37 36
Wind_Direction
245 247 249 251 253 256 260 264 268 271 271 271 269 267 267 268 269 270 269 270 271 273 274 277 278 280 281 283 285 287 289 292 293 295 296 298 299 300 301 302 302 302 303 303
245 248 251 253 254 257 261 264 268 270 271 272 268 268 269 270 270 271 271 272 273 274 276 277 279 280 282 284 286 288 291 292 294 295 297 298 299 300 301 302 302 303 303 303
247 249 252 254 257 261 263 266 268 270 272 269 267 268 270 271 271 271 272 273 274 275 276 277 279 281 283 285 287 289 291 293 294 296 298 299 300 301 301 302 303 303 303 303
246 248 251 259 258 261 263 265 268 270 271 269 268 268 270 272 272 272 272 274 276 277 278 280 282 284 285 287 289 291 292 294 296 297 298 299 300 301 302 303 303 303 304 304
247 251 257 259 262 263 264 265 268 270 270 268 269 270 271 272 273 273 275 276 278 278 280 282 284 286 288 289 291 293 294 296 297 298 299 300 301 302 302 303 304 304 304 305
249 254 260 263 262 263 266 268 268 269 270 271 272 273 273 273 274 275 277 277 278 280 282 285 287 288 290 291 293 294 295 297 297 298 299 300 301 302 303 303 304 304 305 306
251 256 261 264 264 264 266 269 268 270 271 272 273 274 274 274 275 277 278 279 281 283 285 287 288 290 291 292 294 295 296 297 298 299 300 301 302 303 303 304 304 305 306 306
251 255 261 264 264 263 265 267 270 272 273 274 274 275 275 275 278 279 280 282 283 285 287 288 289 291 292 293 294 295 296 298 299 300 301 302 303 303 304 305 305 305 306 306
251 256 260 262 264 265 265 269 271 272 273 274 275 276 277 278 279 281 282 284 286 287 289 290 291 293 293 294 295 296 298 299 300 301 302 303 304 305 305 306 306 306 306 306
251 254 258 261 262 264 266 269 271 273 274 275 276 277 279 281 283 284 285 287 288 289 290 292 293 294 295 296 297 298 299 300 302 303 304 304 305 306 306 307 307 307 307 307
252 255 259 261 263 265 267 270 273 275 276 278 279 280 281 283 284 286 287 288 289 291 292 294 294 295 296 297 298 300 301 302 303 304 304 305 306 307 307 308 308 308 308 308
254 256 258 261 264 266 268 271 274 277 278 279 280 282 283 284 286 288 289 290 291 293 294 296 297 297 298 299 300 301 302 303 304 305 305 306 307 307 308 308 308 309 308 309
252 255 259 262 264 266 269 272 275 277 279 280 282 283 284 287 288 289 290 292 293 295 296 297 297 298 299 301 302 303 304 305 305 306 306 307 308 308 308 308 309 309 309 309
253 256 259 263 265 268 271 273 275 277 279 281 282 284 286 288 289 290 291 293 295 296 297 298 299 300 301 302 303 304 305 305 306 307 308 308 309 309 309 309 309 309 309 309
254 258 261 264 267 269 272 274 276 277 279 281 283 285 286 288 289 291 293 294 296 297 298 299 300 301 302 304 304 305 306 306 307 308 309 309 310 310 310 310 310 310 310 310
255 258 261 264 266 269 272 274 276 278 280 282 283 285 286 288 290 292 294 296 297 298 299 300 301 302 304 304 305 306 307 308 309 309 310 310 310 310 310 310 310 311 311 311
256 259 261 264 267 270 272 275 277 279 281 282 284 285 287 289 291 294 295 297 298 299 300 301 302 304 305 306 306 307 308 309 310 310 310 310 310 310 311 311 311 311 312 312
257 260 263 266 268 271 274 276 278 279 281 282 284 287 289 291 293 295 296 297 299 300 301 303 304 305 306 307 308 308 309 309 310 310 310 310 311 311 311 311 311 311 312 312
258 262 264 266 269 272 275 277 278 280 282 284 285 288 290 292 294 296 297 299 300 301 303 304 305 306 307 308 308 309 309 310 310 310 310 311 311 311 311 311 312 312 312 312
261 263 266 268 270 273 275 277 279 281 283 284 286 289 291 293 295 297 298 300 301 302 304 305 306 307 308 308 309 310 310 311 311 311 310 310 311 311 311 312 312 313 312 312
262 265 268 270 272 274 276 278 280 282 283 286 288 291 293 294 296 297 299 300 302 303 305 306 307 308 309 309 310 311 311 311 311 311 311 311 311 312 312 312 313 313 313 313
263 266 269 271 273 275 277 279 281 283 285 287 289 291 293 295 297 298 300 301 303 304 306 307 308 309 310 310 311 311 311 311 311 311 311 312 312 312 312 312 313 313 313 313
265 268 270 272 274 276 278 280 282 284 286 288 290 292 294 296 298 299 301 302 304 305 307 308 309 310 311 311 312 312 312 312 312 312 312 313 313 313 313 313 313 313 313 313
267 270 271 273 275 277 279 281 284 286 288 290 292 294 295 297 298 300 302 304 305 306 308 309 310 311 311 312 312 312 313 313 313 313 313 313 313 313 314 313 313 313 313 314
269 271 272 274 276 278 281 283 285 288 290 292 293 295 296 298 300 302 303 305 306 307 309 310 311 311 312 313 313 313 313 313 314 314 315 315 315 315 315 315 315 315 315 315
269 271 273 275 277 280 282 285 287 289 291 293 294 296 297 299 301 303 304 306 307 309 310 311 311 312 312 313 313 313 313 314 315 315 316 317 317 317 317 317 317 317 317 316
270 273 275 277 279 282 284 286 288 290 292 294 295 297 299 300 302 304 306 307 308 310 310 311 312 313 313 313 313 314 314 315 315 316 317 318 319 319 319 319 318 318 318 317
Height
5704 5706 5708 5710 5711 5712 5712 5713 5713 5715 5716 5719 5718 5716 5716 5716 5716 5717 5717 5717 5716 5715 5714 5713 5712 5711 5709 5707 5704 5701 5698 5695 5691 5687 5683 5678 5673 5668 5663 5657 5651 5645 5639 5633
5696 5698 5699 5701 5703 5704 5705 5706 5706 5706 5709 5711 5708 5708 5708 5708 5708 5708 5708 5708 5707 5707 5706 5704 5703 5701 5699 5697 5694 5691 5688 5684 5680 5676 5671 5666 5661 5656 5650 5644 5638 5632 5626 5619
5688 5690 5690 5692 5698 5698 5698 5699 5699 5698 5702 5701 5700 5700 5700 5700 5700 5700 5700 5699 5698 5698 5696 5695 5693 5692 5689 5687 5684 5681 5677 5673 5669 5664 5659 5654 5649 5643 5637 5631 5625 5618 5611 5605
5680 5682 5682 5690 5691 5691 5690 5691 5691 5691 5692 5692 5692 5692 5692 5692 5691 5691 5691 5690 5689 5688 5687 5686 5684 5682 5679 5676 5673 5669 5666 5661 5657 5652 5647 5641 5636 5630 5624 5618 5611 5604 5597 5590
5671 5673 5675 5681 5683 5683 5682 5683 5684 5683 5683 5683 5683 5683 5683 5683 5683 5683 5682 5681 5680 5679 5678 5676 5674 5671 5668 5665 5662 5658 5654 5649 5645 5639 5634 5628 5623 5616 5610 5603 5597 5589 5582 5574
5664 5665 5668 5675 5676 5674 5674 5676 5677 5675 5675 5675 5674 5675 5676 5675 5674 5674 5673 5672 5671 5670 5668 5666 5664 5661 5658 5654 5650 5646 5642 5637 5632 5626 5621 5615 5609 5602 5596 5589 5582 5574 5567 5558
5657 5658 5661 5666 5667 5667 5668 5670 5668 5667 5667 5667 5666 5667 5667 5666 5666 5665 5664 5663 5661 5660 5658 5656 5653 5650 5647 5643 5639 5634 5629 5624 5619 5613 5607 5601 5595 5588 5581 5574 5566 5559 5551 5543
5650 5651 5657 5658 5657 5659 5659 5659 5659 5659 5659 5659 5659 5658 5658 5658 5657 5656 5655 5654 5652 5650 5647 5645 5642 5639 5635 5631 5627 5622 5617 5612 5606 5600 5593 5587 5580 5573 5565 5557 5549 5541 5533 5525
5644 5647 5649 5649 5649 5650 5650 5651 5651 5651 5651 5651 5651 5650 5650 5649 5648 5647 5645 5644 5642 5639 5637 5634 5631 5627 5623 5619 5614 5609 5604 5598 5592 5586 5579 5572 5565 5557 5549 5540 5531 5523 5514 5505
5635 5639 5640 5641 5641 5641 5642 5643 5643 5643 5643 5643 5643 5642 5641 5640 5639 5637 5636 5634 5631 5629 5626 5622 5619 5615 5611 5606 5602 5597 5591 5585 5579 5572 5565 5557 5549 5541 5532 5523 5513 5503 5494 5485
5627 5631 5631 5632 5633 5634 5634 5634 5635 5635 5635 5634 5634 5633 5632 5631 5629 5628 5626 5623 5620 5618 5614 5611 5607 5603 5598 5594 5589 5584 5578 5571 5565 5557 5550 5542 5534 5524 5515 5505 5493 5483 5473 5463
5620 5623 5623 5624 5625 5625 5626 5626 5626 5626 5626 5625 5625 5624 5623 5621 5619 5617 5615 5612 5609 5606 5603 5599 5595 5590 5586 5581 5576 5570 5564 5557 5550 5542 5534 5526 5517 5509 5498 5487 5476 5464 5452 5441
5611 5613 5614 5615 5616 5617 5617 5617 5617 5617 5617 5616 5615 5614 5613 5611 5609 5607 5604 5601 5598 5595 5591 5587 5583 5578 5573 5568 5562 5556 5549 5542 5534 5526 5518 5509 5499 5490 5482 5473 5460 5447 5434 5421
5603 5604 5606 5607 5608 5608 5609 5609 5608 5608 5608 5607 5606 5604 5603 5601 5599 5596 5594 5591 5587 5583 5579 5575 5570 5565 5560 5554 5548 5541 5534 5526 5518 5509 5500 5491 5481 5470 5460 5451 5443 5433 5419 5404
5594 5596 5597 5598 5599 5599 5600 5600 5599 5599 5598 5597 5596 5595 5593 5591 5588 5586 5583 5580 5576 5572 5567 5563 5558 5552 5546 5540 5533 5526 5518 5510 5501 5492 5482 5472 5462 5451 5441 5430 5420 5410 5400 5388
5586 5587 5588 5589 5590 5591 5591 5591 5590 5590 5589 5588 5586 5585 5583 5580 5578 5575 5572 5568 5564 5560 5555 5550 5545 5538 5532 5525 5518 5510 5502 5493 5483 5474 5464 5454 5443 5432 5421 5410 5399 5389 5378 5368
5577 5578 5579 5580 5581 5582 5582 5582 5581 5580 5579 5578 5576 5574 5572 5570 5567 5564 5560 5556 5552 5547 5542 5537 5531 5524 5517 5509 5502 5494 5485 5476 5466 5456 5445 5435 5424 5413 5401 5390 5380 5369 5359 5348
5568 5570 5571 5572 5572 5572 5572 5572 5572 5571 5569 5568 5566 5564 5561 5559 5556 5552 5549 5544 5540 5535 5529 5523 5516 5509 5501 5493 5485 5477 5468 5458 5448 5437 5427 5416 5405 5393 5382 5371 5361 5351 5341 5332
5560 5561 5562 5563 5563 5563 5563 5563 5562 5560 5559 5557 5555 5553 5550 5547 5544 5541 5536 5532 5527 5521 5515 5508 5501 5494 5486 5477 5468 5459 5450 5440 5429 5418 5407 5397 5386 5375 5364 5353 5343 5333 5324 5315
5551 5552 5553 5554 5554 5554 5554 5553 5552 5550 5549 5547 5544 5542 5539 5536 5532 5528 5524 5519 5513 5507 5501 5494 5486 5478 5470 5461 5451 5441 5431 5420 5410 5399 5388 5378 5367 5357 5347 5337 5327 5318 5309 5300
5543 5544 5544 5544 5544 5544 5544 5543 5541 5540 5538 5536 5534 5531 5528 5524 5520 5516 5511 5506 5499 5492 5486 5478 5470 5462 5453 5443 5434 5423 5412 5401 5391 5380 5370 5360 5350 5340 5331 5321 5312 5303 5294 5286
5534 5534 5535 5535 5535 5534 5533 5532 5531 5529 5527 5525 5522 5519 5516 5512 5507 5503 5497 5491 5485 5478 5471 5463 5454 5445 5435 5426 5415 5405 5394 5383 5372 5362 5352 5342 5333 5324 5315 5306 5297 5289 5281 5274
5525 5525 5526 5525 5525 5524 5523 5522 5520 5519 5516 5514 5510 5507 5503 5499 5494 5489 5484 5478 5470 5463 5455 5447 5438 5428 5418 5408 5397 5386 5375 5365 5355 5345 5336 5326 5317 5308 5299 5291 5284 5276 5269 5261
5515 5516 5516 5515 5515 5514 5513 5511 5509 5507 5505 5501 5498 5494 5490 5486 5481 5475 5469 5462 5455 5447 5439 5430 5421 5411 5400 5390 5379 5369 5358 5348 5339 5329 5320 5311 5302 5293 5285 5278 5270 5263 5256 5249
5506 5506 5506 5505 5504 5503 5502 5500 5498 5496 5493 5489 5485 5481 5476 5471 5467 5461 5454 5447 5439 5431 5423 5414 5403 5393 5383 5373 5362 5352 5342 5332 5323 5314 5305 5296 5288 5280 5273 5265 5258 5251 5245 5239
5496 5496 5495 5495 5494 5492 5491 5489 5486 5483 5480 5476 5472 5467 5462 5457 5451 5445 5439 5431 5423 5415 5406 5396 5387 5377 5366 5356 5346 5336 5327 5318 5309 5300 5292 5284 5276 5269 5261 5255 5248 5241 5235 5229
5485 5485 5484 5484 5482 5481 5479 5476 5474 5471 5467 5463 5459 5454 5448 5443 5437 5430 5423 5415 5407 5398 5389 5380 5370 5360 5350 5340 5331 5322 5313 5304 5296 5288 5281 5273 5266 5259 5252 5245 5239 5233 5227 5221